Content
SEND FEEDBACK

Daily
Averages
Monthly
Summary
United States of America

WOLSEY, SOUTH DAKOTA


Home > North America > United States > South Dakota
Elevation: 1350 feet     Latitude: 44 25N     Longitude: 098 29W

WEATHER
 
SELECT A DAY
Number of Records: 204,144;   Date Range: 1/1/95 - 9/29/14
 
SHARE

PRINT THIS DATA

[ ← Previous Day ]
WEATHER ALMANAC - FEBRUARY 13, 2013
[ Next Day → ]
[ °C ]   °F
Weather ElementAverageHighLow
Temperature31 °F39.9 °F (3:55 pm)17.1 °F (7:55 am)
Dewpoint26.3 °F32 °F (4:55 pm)14 °F (7:55 am)
Humidity83.3 %92 % (2:55 am)67 % (1:55 pm)
Barometer29.76 in29.87 in (1:55 am)29.65 in (2:55 pm)
Wind Speed8.2 mph17.3 mph (3:55 pm)
Weather ElementAverage
Visibility9.9 mi
Wind DirectionSSW (213.6 °)

Weather ElementTotal
Precipitation---
Heating Degree Days36.5 (Base 65)
Averaged from 25 records on February 13, 2013
WEATHER CONDITIONS BREAKOUT
WIND DIRECTION BREAKOUT
WEATHER BY HOUR - FEBRUARY 13, 2013
[ °C ]   °F
Local TimeTemperatureDewpointHumidityBarometerVisibilityWind DirectionWind SpeedGust SpeedPrecipitationEventsConditions
1:55 AM24.1 °F21.0 °F88 %29.87 in10.0 miCalmOvercast
2:55 AM23.0 °F21.0 °F92 %29.86 in10.0 miCalmOvercast
3:55 AM21.9 °F19.0 °F89 %29.84 in10.0 miCalmScattered Clouds
4:55 AM21.9 °F19.0 °F89 %29.82 in10.0 miCalmOvercast
5:55 AM21.0 °F19.0 °F92 %29.81 in10.0 miSSE (150°)3.5 mphClear
6:55 AM18.0 °F16.0 °F92 %29.80 in10.0 miSSE (150°)3.5 mphClear
7:55 AM17.1 °F14.0 °F88 %29.79 in10.0 miCalmClear
8:55 AM23.0 °F21.0 °F92 %29.78 in10.0 miSSW (210°)3.5 mphClear
9:55 AM28.9 °F21.9 °F75 %29.76 in10.0 miWSW (250°)5.8 mphClear
10:55 AM34.0 °F26.1 °F73 %29.74 in10.0 miSSW (210°)8.1 mphOvercast
11:55 AM35.1 °F27.0 °F72 %29.70 in10.0 miSSW (210°)9.2 mphOvercast
12:55 PM36.0 °F28.0 °F73 %29.67 in10.0 miSW (230°)8.1 mphOvercast
1:55 PM39.0 °F28.9 °F67 %29.66 in10.0 miWSW (250°)13.8 mphOvercast
2:55 PM39.0 °F30.0 °F70 %29.65 in10.0 miWest (260°)11.5 mphOvercast
3:55 PM39.9 °F30.9 °F70 %29.65 in10.0 miWNW (290°)17.3 mphOvercast
4:55 PM39.0 °F32.0 °F76 %29.67 in10.0 miWNW (300°)15.0 mphClear
5:55 PM37.0 °F32.0 °F82 %29.69 in10.0 miWNW (300°)10.4 mphClear
6:55 PM35.1 °F30.9 °F85 %29.72 in10.0 miNW (320°)10.4 mphClear
7:55 PM34.0 °F30.9 °F89 %29.74 in10.0 miNW (310°)10.4 mphMostly Cloudy
8:55 PM34.0 °F32.0 °F92 %29.76 in10.0 miWest (280°)8.1 mphOvercast
9:37 PM35.6 °F32.0 °F87 %29.72 in10.0 miNW (310°)12.7 mphOvercast
9:55 PM36.0 °F32.0 °F86 %29.77 in10.0 miNW (310°)15.0 mphOvercast
10:55 PM35.1 °F30.9 °F85 %29.79 in10.0 miNNW (330°)12.7 mphOvercast
11:53 PM33.8 °F30.2 °F87 %29.79 in9.0 miNNW (330°)12.7 mphOvercast
11:55 PM33.1 °F30.9 °F92 %29.83 in9.0 miNNW (340°)13.8 mphOvercast
Hourly data recorded from KHON, located miles away from Wolsey, South Dakota







STORIES FROM OUR PARTNERS